Springfield, OH

7:18 PM EST on February 24, 2017 (GMT -0500)
Springfield-Beckley Municipal

Weather History for KSGH - April, 2014

Change the Weather History Date:

Monday, April 14, 2014

  Actual Average (KFFO) Record (KFFO)
Temperature  
Mean Temperature 54 °F -  
Max Temperature 70 °F 62 °F 78 °F (2003)
Min Temperature 38 °F 41 °F 24 °F (1997)
Degree Days  
Heating Degree Days 10    
Growing Degree Days 4 (Base 50)    
Moisture  
Dew Point 51 °F    
Average Humidity 85    
Maximum Humidity 100    
Minimum Humidity 51    
Precipitation  
Precipitation 1.33 in - - ()
Sea Level Pressure  
Sea Level Pressure 29.72 in    
Wind  
Wind Speed 15 mph (West)    
Max Wind Speed 25 mph    
Max Gust Speed 34 mph    
Visibility 5 miles    
Events Rain    
Averages and records for this station are not official NWS values.
T = Trace of Precipitation, MM = Missing Value Source: NWS Daily Summary

Daily Weather History Graph

Daily Weather History Graph

Search for Another Location

Airport or City:

Trip Planner

Search our weather history database for the weather conditions in past years. The results will help you decide how hot, cold, wet, or windy it might be!

Date:

Astronomy

Apr. 14, 2014 Rise Set
Actual Time 6:59 AM EDT 8:12 PM EDT
Civil Twilight 6:31 AM EDT 8:40 PM EDT
Nautical Twilight 5:57 AM EDT 9:14 PM EDT
Astronomical Twilight 5:23 AM EDT 9:49 PM EDT
Moon 7:50 PM EDT (4/14) 6:30 AM EDT (4/14)
Length of Visible Light 14h 09m
Length of Day
13h 13m
Full, 100% of the Moon is Illuminated
Apr 14
Full
Apr 15
Full
Apr 22
Last Quarter
Apr 29
New
May 6
First Quarter

Hourly Weather History & Observations

Time (EDT) Temp. Windchill Dew Point Humidity Pressure Visibility Wind Dir Wind Speed Gust Speed Precip Events Conditions
12:56 AM 70.0 °F - 50.9 °F 51% 29.73 in 8.0 mi South 12.7 mph 20.7 mph N/A   Clear
1:56 AM 70.9 °F - 52.9 °F 53% 29.71 in 8.0 mi South 15.0 mph 23.0 mph N/A   Clear
2:56 AM 70.0 °F - 52.9 °F 55% 29.68 in 8.0 mi South 16.1 mph 25.3 mph N/A   Clear
3:56 AM 70.9 °F - 52.9 °F 53% 29.67 in 8.0 mi South 17.3 mph 25.3 mph N/A   Clear
4:56 AM 70.9 °F - 54.0 °F 55% 29.65 in 8.0 mi South 20.7 mph 29.9 mph N/A   Clear
5:56 AM 70.9 °F - 54.0 °F 55% 29.63 in 8.0 mi SSW 19.6 mph 25.3 mph N/A   Mostly Cloudy
6:56 AM 65.8 °F - 55.9 °F 70% 29.65 in 8.0 mi SSW 20.7 mph 34.5 mph 0.99 in   Partly Cloudy
7:56 AM 64.9 °F - 55.9 °F 73% 29.67 in 7.0 mi SSW 23.0 mph 29.9 mph N/A   Mostly Cloudy
8:56 AM 63.9 °F - 56.8 °F 78% 29.68 in 4.0 mi SSW 16.1 mph 25.3 mph 0.00 in Rain Light Rain
9:56 AM 63.9 °F - 57.9 °F 81% 29.66 in 6.0 mi SSW 20.7 mph 27.6 mph 0.00 in Rain Light Rain
10:56 AM 61.9 °F - 59.0 °F 90% 29.70 in 3.0 mi SSW 21.9 mph 32.2 mph 0.01 in   Overcast
11:30 AM 62.6 °F - 59.0 °F 88% 29.71 in 6.0 mi SSW 25.3 mph 29.9 mph 0.00 in   Overcast
11:56 AM 63.9 °F - 59.0 °F 84% 29.70 in 5.0 mi SSW 19.6 mph 33.4 mph 0.00 in   Haze
12:39 PM 64.4 °F - 57.2 °F 77% 29.71 in 6.0 mi SSW 21.9 mph 31.1 mph N/A   Haze
12:56 PM 63.9 °F - 57.9 °F 81% 29.70 in 5.0 mi SW 18.4 mph 25.3 mph 0.00 in Rain Light Rain
1:27 PM 62.6 °F - 59.0 °F 88% 29.71 in 3.0 mi SSW 11.5 mph - 0.01 in Rain Light Rain
1:56 PM 63.0 °F - 59.0 °F 87% 29.69 in 6.0 mi SSW 17.3 mph - 0.01 in   Overcast
2:56 PM 61.9 °F - 59.9 °F 93% 29.70 in 3.0 mi SSW 16.1 mph - 0.00 in Rain Light Rain
3:03 PM 62.6 °F - 60.8 °F 94% 29.72 in 4.0 mi SSW 13.8 mph 24.2 mph 0.00 in Rain Light Rain
3:41 PM 64.4 °F - 59.0 °F 83% 29.71 in 6.0 mi SW 12.7 mph 23.0 mph 0.00 in   Haze
3:56 PM 63.0 °F - 59.0 °F 87% 29.69 in 3.0 mi SW 12.7 mph - 0.00 in Rain Light Rain
4:31 PM 64.4 °F - 57.2 °F 77% 29.70 in 6.0 mi SW 15.0 mph 19.6 mph 0.00 in   Haze
4:56 PM 63.0 °F - 59.9 °F 90% 29.68 in 6.0 mi SW 11.5 mph - 0.01 in   Overcast
5:04 PM 62.6 °F - 60.8 °F 94% 29.69 in 6.0 mi SW 10.4 mph - 0.00 in   Overcast
5:40 PM 57.2 °F - 53.6 °F 88% 29.71 in 6.0 mi NW 16.1 mph - 0.00 in   Overcast
5:47 PM 55.4 °F - 53.6 °F 94% 29.70 in 5.0 mi NW 12.7 mph - 0.00 in   Overcast
5:56 PM 54.9 °F - 52.0 °F 90% 29.69 in 5.0 mi NW 11.5 mph - 0.00 in   Overcast
6:05 PM 53.6 °F - 51.8 °F 94% 29.70 in 5.0 mi NNW 12.7 mph - N/A   Overcast
6:29 PM 55.4 °F - 51.8 °F 88% 29.70 in 6.0 mi NNW 11.5 mph - N/A   Overcast
6:56 PM 52.9 °F - 50.0 °F 90% 29.69 in 6.0 mi North 10.4 mph - N/A   Overcast
7:41 PM 50.0 °F - 46.4 °F 87% 29.72 in 6.0 mi NW 12.7 mph - N/A   Overcast
7:56 PM 50.0 °F - 45.9 °F 86% 29.72 in 7.0 mi NW 8.1 mph - N/A   Overcast
8:56 PM 46.9 °F - 45.0 °F 93% 29.73 in 7.0 mi NW 11.5 mph - 0.00 in   Overcast
9:36 PM 44.6 °F 38.4 °F 42.8 °F 93% 29.75 in 3.0 mi NW 12.7 mph - 0.02 in Rain Heavy Rain
9:43 PM 44.6 °F 38.4 °F 42.8 °F 93% 29.75 in 2.5 mi WNW 12.7 mph - 0.03 in Rain Light Rain
9:56 PM 43.9 °F 37.9 °F 41.9 °F 93% 29.76 in 4.0 mi NNW 11.5 mph - 0.03 in Rain Light Rain
10:01 PM 44.6 °F 39.2 °F 42.8 °F 93% 29.76 in 4.0 mi NW 10.4 mph - 0.01 in Rain Light Rain
10:19 PM 44.6 °F 39.2 °F 42.8 °F 93% 29.79 in 3.0 mi WNW 10.4 mph - 0.02 in Rain Rain
10:29 PM 42.8 °F 38.0 °F 42.8 °F 100% 29.78 in 2.0 mi NW 8.1 mph - 0.07 in Rain Heavy Rain
10:31 PM 42.8 °F 38.0 °F 42.8 °F 100% 29.78 in 1.8 mi NW 8.1 mph - 0.09 in Rain Heavy Rain
10:49 PM 42.8 °F 38.0 °F 42.8 °F 100% 29.76 in 2.5 mi NW 8.1 mph - 0.22 in Rain Heavy Rain
10:56 PM 41.9 °F 34.3 °F 41.0 °F 97% 29.76 in 2.5 mi NW 15.0 mph - 0.23 in Rain Light Rain
11:03 PM 41.0 °F 32.8 °F 39.2 °F 93% 29.76 in 3.0 mi NW 16.1 mph - 0.01 in Rain Heavy Rain
11:12 PM 41.0 °F 32.8 °F 39.2 °F 93% 29.77 in 2.5 mi NW 16.1 mph - 0.03 in Rain Light Rain
11:20 PM 39.2 °F 31.2 °F 39.2 °F 100% 29.76 in 4.0 mi NW 13.8 mph - 0.03 in Rain Light Rain
11:29 PM 39.2 °F 31.6 °F 39.2 °F 100% 29.77 in 5.0 mi WNW 12.7 mph - 0.03 in Rain Light Rain
11:56 PM 38.8 °F 29.7 °F 37.9 °F 97% 29.77 in 3.0 mi NW 17.3 mph - 0.05 in Rain Heavy Rain